Dewpoint
72 72 71 71 72 72 72 72 71 71 71 71 71 71 71 71 72 72 72 72 72 72 72 72 72 72 72 72 72 72 72 72 71 71 71 70 70 70 70 70 70 70 70 70 69 69 69 66 64 62 61 61 61 61 62 62 61 61 61 61 62 63 64 66 68 68 68 66 66 67 68 68 68 68 67 67 66 66 65 65 64 64 63 63 64 64 65 65 65 66 67 67 68 68 68 67 66 65 64 64 64 64 64
72 71 71 71 72 72 72 72 72 71 71 71 71 71 71 71 71 71 72 72 72 72 72 72 72 72 72 72 72 71 71 71 71 71 71 71 70 70 70 70 70 70 70 70 70 69 69 66 63 62 62 62 62 62 62 62 62 62 61 62 62 63 64 66 67 67 68 67 67 67 68 68 67 67 67 67 66 66 66 65 65 64 64 63 63 64 64 65 65 65 66 67 68 68 68 67 66 65 65 64 64 64 64
71 71 71 71 72 72 72 72 72 72 71 71 71 71 71 71 71 71 72 72 72 72 72 72 72 72 72 72 71 71 71 71 71 71 71 71 70 70 70 70 70 70 70 70 70 70 69 67 64 62 61 61 61 62 62 62 62 62 62 62 62 63 65 65 66 67 68 68 68 67 67 67 67 66 66 66 66 66 66 65 65 65 65 64 64 63 64 64 64 65 65 66 67 68 68 68 67 66 65 65 65 65 64
72 72 72 72 72 73 73 72 72 72 71 71 71 71 71 72 72 72 72 73 72 72 72 72 72 72 72 72 72 71 71 71 71 71 71 71 70 70 70 70 70 70 70 70 70 70 67 65 64 63 61 61 61 62 63 63 63 62 62 63 63 64 66 66 66 67 69 69 69 69 67 67 66 66 66 65 65 65 66 66 65 65 65 65 64 64 64 64 64 64 65 66 66 67 67 67 67 66 65 65 65 65 64
73 73 73 73 73 73 73 72 72 72 72 71 71 71 72 72 72 72 72 72 72 72 72 72 72 72 71 72 72 71 71 71 71 71 71 71 70 70 70 71 71 71 70 70 70 69 66 64 63 62 62 61 61 61 62 63 63 63 63 63 63 63 65 65 66 67 68 70 70 70 68 67 66 66 65 65 65 65 66 66 65 65 65 65 65 65 64 64 64 64 64 65 66 66 67 66 66 65 65 64 64 64 65
73 73 73 73 73 73 73 73 72 72 72 72 71 71 72 72 72 72 72 72 72 72 72 72 72 72 71 71 71 71 71 71 71 71 71 71 70 70 71 71 71 71 70 70 70 69 67 64 62 62 62 61 61 61 61 62 63 63 63 64 63 64 65 65 66 67 68 69 70 70 70 68 67 66 66 65 65 65 65 65 65 65 65 65 65 65 65 64 64 64 64 64 65 65 66 66 65 65 65 64 64 64 65
73 73 73 73 73 73 73 73 73 72 72 72 71 71 72 72 72 72 72 71 71 71 72 72 72 71 70 70 70 70 70 70 70 70 71 71 71 71 71 71 71 71 70 70 70 69 68 65 64 63 62 62 61 61 60 61 62 62 63 64 64 65 65 66 66 67 67 68 69 70 70 70 68 67 66 65 65 65 65 65 65 65 65 65 65 65 65 64 64 64 64 64 65 65 65 65 65 65 65 64 64 64 65
72 73 73 73 73 73 73 73 73 72 72 72 71 71 71 71 72 72 72 71 71 71 72 72 71 71 70 70 70 70 70 70 70 70 70 71 71 71 71 71 71 71 70 70 70 69 68 66 64 64 63 63 62 62 61 61 61 61 62 63 64 65 66 66 67 67 67 67 68 70 71 70 70 69 67 66 65 65 65 65 65 65 65 65 65 65 65 65 64 64 64 65 65 65 65 65 65 65 65 64 64 64 65
72 72 72 72 72 72 72 72 72 72 72 72 72 71 71 71 71 72 72 72 72 72 72 72 71 71 71 71 71 71 70 70 70 70 70 71 71 71 70 71 71 71 70 70 70 69 69 66 65 63 63 63 62 62 63 61 61 61 61 63 64 65 66 67 67 68 68 67 68 69 70 71 70 70 69 67 66 65 65 65 65 65 65 65 65 65 65 65 65 65 65 65 65 65 65 65 65 65 65 65 64 64 65
72 71 71 71 71 72 72 72 72 72 72 72 72 72 72 72 72 72 72 72 72 72 72 72 71 71 71 71 71 71 70 70 70 70 70 71 71 71 71 71 71 71 70 70 70 69 69 66 65 63 62 62 62 62 63 62 62 62 62 63 64 65 66 66 67 67 67 67 68 69 70 70 70 70 70 68 67 65 65 65 65 65 65 65 65 65 65 65 65 65 65 65 65 65 65 65 65 65 65 65 65 65 65
71 71 71 71 71 71 71 71 72 72 72 72 72 72 72 72 72 72 72 72 72 71 72 72 72 72 72 72 71 71 71 71 70 71 71 71 71 71 71 71 71 71 70 70 70 69 69 67 65 64 63 62 62 63 63 62 62 62 62 64 65 66 65 66 66 67 67 67 68 68 69 70 70 70 70 69 68 66 65 65 65 65 65 65 65 65 65 65 65 65 65 65 65 66 66 66 66 67 67 66 65 65 65
70 70 70 70 70 70 70 71 71 71 72 72 72 72 72 72 72 72 72 72 72 72 72 72 72 72 72 72 72 71 71 71 71 71 72 72 72 72 72 71 71 71 70 70 70 69 68 67 66 65 64 63 63 63 63 63 62 62 62 66 67 67 66 66 67 67 68 68 68 68 69 69 70 70 71 70 68 66 65 65 66 65 65 65 65 65 65 65 65 65 65 65 65 66 67 68 68 68 68 68 67 65 65
69 69 69 69 69 70 70 70 70 70 71 71 71 72 72 72 72 72 72 72 72 72 72 72 72 72 72 72 72 72 72 72 72 72 72 72 72 72 72 71 71 70 70 70 70 69 67 67 66 65 65 64 64 64 64 63 63 63 63 67 68 67 66 67 67 68 68 69 69 69 69 69 70 70 71 70 68 67 66 66 66 66 66 65 65 65 65 65 65 65 65 65 65 66 67 68 68 68 68 69 68 67 65
68 68 68 68 69 69 69 70 70 70 70 70 71 71 71 72 72 72 72 72 72 72 72 72 72 72 72 72 72 72 72 72 72 72 72 72 72 72 72 71 71 70 70 70 70 69 69 68 67 66 65 65 64 64 65 64 64 64 65 67 67 67 67 67 68 69 69 69 69 69 69 69 70 71 71 70 68 67 66 66 66 66 66 66 66 65 65 66 66 66 66 65 65 66 67 68 68 67 67 68 68 68 67
67 67 67 68 68 69 69 69 69 70 70 70 70 70 71 71 71 72 72 72 72 72 72 72 72 72 72 72 72 72 72 72 72 72 72 72 72 72 71 71 70 70 70 70 69 69 68 67 67 66 65 65 65 65 65 64 65 65 67 66 66 67 67 68 68 69 69 69 69 69 69 70 70 71 71 70 69 67 67 67 67 66 66 66 66 66 66 66 66 66 66 66 66 66 67 67 67 67 66 67 68 68 68
65 65 66 67 68 68 69 69 69 69 69 70 70 70 70 71 71 71 72 72 72 72 72 72 72 72 72 72 72 72 71 71 72 72 72 72 71 71 71 71 70 70 70 70 69 67 66 66 66 66 66 65 65 65 65 65 65 66 67 66 66 67 67 68 68 69 69 69 70 70 69 69 70 70 70 70 69 68 68 67 67 67 67 66 66 66 66 66 66 66 66 66 66 67 67 67 67 67 67 67 68 68 68
65 65 66 67 68 68 68 69 69 69 69 69 70 70 70 70 71 71 71 71 71 72 72 72 72 72 72 72 72 71 70 69 70 71 71 71 71 71 70 70 70 69 69 69 67 66 65 65 65 66 66 65 65 65 65 65 65 66 66 66 66 67 67 68 68 69 69 69 70 70 70 70 70 70 70 70 70 69 69 68 68 67 67 67 66 66 67 67 66 66 66 66 67 67 67 67 67 67 67 68 69 69 68
65 66 67 67 67 68 68 68 69 69 69 69 69 69 70 70 70 71 71 71 71 71 71 71 71 71 71 71 71 70 69 67 68 69 69 70 70 70 70 70 70 69 69 67 67 66 66 66 66 66 66 66 66 66 65 66 66 67 66 66 66 67 67 67 68 68 69 69 70 70 70 70 70 70 70 70 70 70 69 69 68 68 67 67 67 67 67 67 67 67 67 67 67 67 67 67 67 68 68 68 69 69 69
65 66 67 67 67 67 68 68 69 69 69 69 69 69 70 70 70 70 71 70 70 70 71 71 71 71 71 71 70 70 68 67 67 67 67 68 69 69 68 69 70 70 70 70 69 69 68 68 67 67 68 68 67 67 67 67 67 68 67 67 67 67 67 67 68 68 69 69 69 70 70 70 70 70 70 70 70 70 70 69 69 68 68 67 67 67 67 67 67 67 67 67 67 67 67 67 67 68 68 69 69 69 69
65 67 67 67 67 67 68 68 69 69 70 69 69 70 70 70 70 70 70 70 70 70 70 70 70 70 70 71 71 70 70 69 68 67 66 66 67 68 68 69 69 70 70 70 70 69 69 69 69 69 69 69 69 68 67 68 68 68 68 68 68 68 68 68 68 68 68 69 69 69 70 70 70 70 70 70 70 70 70 69 69 68 68 67 67 67 67 67 67 67 67 67 67 67 67 67 67 67 68 68 69 69 69
65 65 65 67 68 68 69 69 70 70 70 69 70 70 70 70 70 71 70 70 70 70 70 70 70 70 69 70 70 71 71 70 70 69 67 66 66 66 66 66 66 66 66 66 67 68 69 70 70 70 69 69 69 68 68 68 68 68 68 68 68 69 69 68 68 68 68 68 69 69 70 70 70 70 70 70 70 70 70 70 69 69 68 68 67 67 67 67 67 67 67 67 67 67 67 67 67 67 67 68 68 69 69
61 62 63 64 65 67 67 69 69 70 70 69 70 71 71 70 70 70 70 69 69 69 70 69 69 68 68 67 68 68 68 69 69 69 68 68 68 66 65 65 65 65 65 66 68 70 70 70 70 69 69 68 68 68 67 68 69 69 68 68 69 69 69 69 69 68 68 68 68 69 69 70 70 70 70 70 70 70 70 70 70 69 69 68 68 67 67 67 67 67 67 67 67 67 67 67 67 67 67 67 67 68 68
58 60 61 61 62 64 65 66 68 68 69 68 69 70 71 70 70 70 70 69 68 68 68 68 67 67 67 66 65 65 65 66 66 67 67 69 68 67 66 65 65 66 67 69 70 70 70 69 68 68 67 67 67 67 67 68 69 69 68 68 69 69 69 69 69 69 68 68 68 68 69 69 70 70 70 70 70 70 70 70 70 70 69 69 68 68 67 67 67 67 67 67 67 67 67 67 67 67 67 67 67 67 68
55 56 58 59 60 61 63 65 66 67 67 68 68 69 69 70 70 70 70 70 69 68 68 67 67 66 66 65 65 64 65 65 65 65 65 65 65 65 65 65 65 66 68 68 69 69 68 67 67 67 67 66 66 66 66 67 68 68 68 68 68 69 69 70 70 69 69 68 68 68 68 69 69 70 70 70 71 71 70 70 70 70 70 69 69 68 68 67 67 67 67 67 67 67 67 67 67 67 67 67 66 67 67
53 53 54 56 58 59 61 63 64 65 65 66 67 67 68 69 69 70 69 69 69 69 68 67 66 66 65 65 64 64 64 64 64 65 65 64 64 63 64 63 63 64 65 65 66 66 66 66 66 66 66 66 66 66 66 66 67 68 68 68 68 69 69 70 70 70 70 69 68 68 68 68 69 69 70 70 70 70 71 71 70 70 70 70 69 69 68 68 68 67 67 67 67 67 67 67 67 67 67 67 66 66 66
51 51 52 54 56 57 59 61 62 64 64 65 65 65 67 67 68 68 68 68 68 68 68 67 66 65 65 65 65 65 64 64 65 65 65 64 64 64 64 63 63 63 63 63 63 63 64 64 64 64 65 66 66 67 67 65 66 67 67 68 68 68 69 70 70 70 70 70 69 69 68 68 68 68 69 69 70 70 70 71 71 70 70 70 70 69 69 69 68 68 67 67 67 67 67 67 67 67 67 66 66 66 66
51 50 50 52 54 55 56 57 59 61 62 63 63 64 65 66 66 66 66 66 66 66 66 66 66 65 64 64 64 65 64 64 64 64 64 64 63 63 63 63 62 62 62 62 62 62 63 63 63 63 64 66 67 68 68 67 67 67 67 67 68 68 69 69 70 70 70 70 70 69 69 68 68 68 68 69 69 70 70 70 70 70 70 70 70 70 70 69 69 68 68 67 67 67 67 67 67 67 66 66 66 66 66
52 51 51 51 52 53 54 55 56 58 59 61 61 62 64 65 65 64 65 65 65 65 64 64 64 64 63 63 63 63 63 63 63 63 63 63 62 62 62 62 62 62 62 62 62 61 62 62 62 62 62 64 66 68 68 67 67 67 67 67 67 68 68 69 69 70 70 70 70 70 70 69 68 68 68 68 68 69 69 70 70 70 70 70 70 70 70 70 69 69 68 68 67 67 67 67 67 67 66 66 66 66 67
54 52 52 52 52 52 53 54 55 56 56 57 58 60 61 63 63 62 63 63 63 63 64 63 63 63 62 62 62 62 61 62 62 62 62 62 62 62 62 61 61 61 61 61 60 60 60 60 60 60 60 61 62 64 65 66 66 66 66 67 67 67 68 68 69 69 70 70 70 70 70 70 69 69 68 68 68 68 69 69 70 70 70 70 70 70 70 70 70 69 68 68 68 68 67 67 67 67 67 66 67 67 67
54 53 53 54 54 53 53 53 54 55 56 56 56 56 58 60 60 61 61 61 62 62 62 62 62 62 62 62 61 61 61 61 61 61 61 61 61 61 61 61 61 61 60 60 60 59 59 59 59 59 59 59 59 60 62 64 65 65 66 66 66 67 67 68 68 68 69 70 70 70 70 70 70 69 69 68 68 68 68 68 69 69 70 70 70 70 71 70 70 69 69 68 68 68 68 67 67 67 67 67 67 67 67
54 53 52 53 53 52 51 52 52 53 55 55 55 54 54 55 57 59 60 61 61 61 59 60 61 61 63 63 62 61 61 61 61 60 60 60 60 59 59 59 59 59 59 59 59 59 59 59 59 59 59 59 59 60 62 64 64 65 66 66 66 66 66 67 67 68 68 69 69 70 70 70 70 70 70 69 69 68 68 68 68 69 69 70 70 70 71 71 70 70 69 69 68 68 68 68 67 67 67 67 67 67 67
52 52 52 52 51 51 50 50 51 52 53 54 54 54 53 53 53 55 57 60 60 61 61 61 62 62 63 63 64 64 63 63 63 61 60 59 59 59 59 59 58 58 58 58 59 59 59 59 59 59 59 59 59 59 60 61 62 63 65 65 65 65 66 66 67 67 68 68 68 69 69 69 70 70 70 69 69 69 69 68 68 68 69 69 70 70 71 71 70 70 70 69 68 68 68 68 68 67 67 67 67 67 67
52 51 51 51 51 51 50 49 49 51 52 52 53 53 53 52 52 52 53 55 57 60 61 61 61 61 61 61 61 62 61 62 61 61 60 59 59 59 58 57 57 58 58 58 58 58 58 58 58 58 58 59 59 59 58 58 59 59 61 63 65 65 65 65 66 66 67 67 68 68 68 69 69 69 69 69 69 69 69 69 69 69 68 69 69 70 70 70 70 70 70 69 69 68 68 68 68 68 67 67 67 67 68
51 51 51 51 51 50 50 50 49 49 50 51 52 53 54 52 50 49 49 50 52 54 57 59 61 61 61 60 60 60 59 60 60 60 59 59 58 58 57 57 57 57 57 57 57 57 57 57 57 58 58 58 58 58 58 58 58 59 59 60 62 64 65 65 65 66 66 66 67 67 68 68 68 68 69 69 69 69 69 69 69 69 68 69 69 69 70 70 70 70 70 70 69 69 69 68 68 68 68 68 68 68 68
51 51 52 51 50 49 50 49 49 49 49 50 51 52 53 52 50 50 49 49 49 50 52 55 57 59 59 60 59 59 58 58 58 58 58 57 56 56 57 56 56 56 56 56 56 56 56 56 56 57 57 58 58 58 58 58 58 58 59 59 60 61 64 65 65 65 65 65 66 66 67 67 68 68 68 68 68 68 68 68 68 68 68 69 69 69 69 69 70 70 70 70 70 69 69 69 68 68 68 68 68 68 68
50 50 50 50 49 49 49 48 48 49 50 50 50 51 52 52 51 51 50 50 48 47 47 50 52 54 56 56 56 56 56 56 57 57 56 56 56 56 57 56 56 56 56 56 55 55 55 55 56 56 56 56 57 57 57 58 58 58 58 59 59 60 61 63 64 65 65 65 65 66 66 67 67 67 67 67 67 67 67 68 68 68 68 68 68 68 69 69 69 69 70 70 70 70 69 69 69 69 68 68 68 68 68
49 49 49 49 49 49 49 48 49 49 50 50 50 51 51 51 51 51 50 50 48 46 47 48 50 52 53 53 53 53 54 55 55 56 56 56 56 57 57 57 57 56 55 55 56 56 55 55 55 55 55 56 56 56 56 57 57 57 57 58 59 59 60 60 61 62 63 64 65 65 65 66 66 66 67 67 67 67 67 67 67 67 67 68 68 68 68 68 69 69 69 70 70 70 70 69 69 69 69 68 68 68 68
48 48 48 49 50 50 50 49 49 50 50 50 50 50 50 50 51 51 50 50 49 48 49 48 49 51 52 51 52 52 53 53 53 52 52 54 55 56 56 56 56 56 55 56 56 56 55 55 54 54 55 55 55 56 56 56 56 56 56 57 57 58 58 58 58 59 61 62 63 64 65 65 65 66 66 66 66 66 66 66 66 66 67 67 67 67 68 68 68 68 69 69 69 70 70 70 70 69 69 69 69 68 68
48 48 48 48 49 50 49 50 50 50 50 50 49 49 49 50 51 51 51 51 50 50 49 48 48 49 50 51 51 52 52 52 51 50 49 50 51 52 53 55 55 56 56 56 56 56 55 54 54 54 55 55 55 55 55 55 55 55 56 56 56 56 56 57 57 58 59 59 60 62 64 65 65 65 65 65 65 65 65 65 66 66 66 66 66 67 67 67 67 68 68 68 69 69 70 70 70 70 69 69 69 69 68
48 48 48 48 49 49 49 50 51 51 51 50 49 49 49 50 50 51 50 50 50 50 50 49 48 47 48 49 50 51 52 52 52 51 49 48 48 48 49 51 52 53 54 55 55 54 54 54 53 54 54 54 54 54 54 54 55 55 55 55 55 56 56 56 56 56 57 58 58 60 62 63 64 65 65 65 65 65 65 65 65 65 65 66 66 66 66 66 67 67 67 68 68 69 69 69 70 70 70 70 69 69 69
48 48 48 48 48 48 49 50 51 51 51 50 50 49 49 49 49 49 48 48 49 50 50 50 49 47 47 47 48 49 51 52 53 53 52 50 49 48 48 49 50 51 52 53 53 53 53 52 52 52 52 53 53 53 53 53 54 54 55 55 55 55 55 56 56 56 56 57 58 59 59 62 63 64 64 65 65 65 65 65 65 65 65 65 65 65 66 66 66 66 67 67 67 68 68 69 69 70 70 70 70 70 69
49 48 48 48 48 48 49 50 51 51 51 50 50 50 50 49 49 48 47 48 48 49 49 50 50 49 48 47 47 48 49 50 51 52 52 52 52 51 50 50 49 50 51 51 52 52 52 52 52 52 52 52 52 52 52 53 53 54 55 55 55 55 55 55 55 55 56 56 56 57 58 60 62 63 64 64 64 65 65 65 65 65 65 65 65 65 65 65 66 66 66 66 67 67 67 68 68 69 70 70 70 70 70
49 48 48 48 48 48 49 50 50 51 50 50 50 50 50 50 50 49 49 49 49 48 48 49 50 50 50 49 49 48 48 48 48 49 50 52 52 52 52 51 49 48 49 49 50 51 51 52 52 52 53 52 52 52 52 53 53 54 54 54 55 55 55 55 55 55 55 56 56 56 57 59 60 61 62 63 63 64 64 64 64 64 64 65 65 65 65 65 65 65 65 66 66 66 66 67 67 68 69 69 70 70 70
49 49 48 48 48 48 48 49 50 50 50 49 49 49 50 50 51 51 51 50 49 48 47 49 50 50 51 49 48 48 48 47 47 47 48 49 50 50 51 50 49 48 48 49 50 51 51 52 52 52 52 52 51 50 51 52 52 52 53 54 54 55 56 56 56 56 56 57 57 57 57 58 59 60 61 61 62 63 63 63 63 63 64 64 64 65 65 65 65 65 65 65 65 65 65 66 66 67 68 69 69 70 70
50 49 49 49 49 48 48 48 49 49 49 49 49 50 50 50 51 51 51 51 50 49 47 47 49 50 50 49 48 48 48 48 47 47 48 48 49 49 49 49 48 48 48 49 50 51 51 52 52 51 51 50 50 50 50 50 50 51 52 52 53 54 55 56 57 57 57 57 58 58 58 58 58 58 60 60 60 61 61 61 62 62 63 64 64 65 65 65 65 65 65 65 65 65 65 65 66 66 67 68 68 69 69
50 50 49 49 49 49 48 48 48 49 49 49 49 49 49 49 49 50 50 51 51 50 48 47 47 48 49 49 49 48 48 48 48 48 48 48 49 49 49 48 48 48 48 49 49 50 51 51 51 50 50 49 49 49 49 50 50 50 50 50 51 52 54 55 56 56 57 57 57 58 58 58 57 57 57 58 58 58 59 59 61 61 62 63 64 64 65 64 65 65 65 65 65 65 65 65 65 65 66 67 67 68 69
49 49 49 49 49 49 48 48 48 48 48 48 48 48 48 48 48 48 48 50 50 50 49 48 47 47 47 48 49 49 49 48 48 48 48 48 48 49 49 48 48 48 48 48 48 49 50 50 50 49 49 48 48 47 47 49 50 50 49 49 50 51 52 53 54 55 56 56 56 57 57 56 56 56 56 56 56 56 56 57 59 60 61 62 63 63 64 64 64 64 65 65 65 65 65 65 65 65 65 66 66 67 67
49 49 49 49 49 49 49 48 48 47 47 47 47 47 47 47 47 47 48 48 48 49 49 49 48 47 47 47 47 48 49 48 48 48 49 49 49 49 49 49 49 49 49 48 48 49 50 49 49 48 48 48 47 47 47 47 48 49 48 49 49 49 50 51 52 53 53 53 54 55 55 55 55 55 55 55 55 54 54 55 56 58 59 60 61 62 63 63 63 64 64 65 65 65 65 65 65 65 65 65 66 66 66
49 49 49 49 49 49 49 49 48 48 47 47 47 47 47 47 48 48 49 49 49 50 51 50 49 48 47 46 46 47 47 48 49 49 50 50 49 49 48 49 49 50 50 50 50 50 50 49 48 48 48 47 47 47 47 47 48 48 48 48 48 48 48 49 50 51 52 52 52 53 54 54 54 54 54 54 53 53 53 54 55 56 57 59 60 61 62 62 62 63 64 64 65 65 65 65 65 65 65 65 65 65 65
50 49 49 49 49 49 49 49 49 49 48 47 47 47 47 47 48 49 50 50 52 52 51 50 50 49 47 46 45 46 47 47 48 49 50 49 47 46 45 46 46 47 47 48 50 51 51 49 49 48 48 48 48 48 48 48 49 49 49 49 49 49 48 49 49 50 51 52 52 53 54 54 54 53 53 53 53 53 53 54 54 55 56 57 58 59 59 61 61 62 63 64 65 65 65 65 65 65 65 65 65 65 65
49 49 49 49 49 49 49 49 49 49 49 48 48 48 47 47 48 48 49 50 51 51 50 48 48 49 49 47 46 46 47 47 48 48 47 46 45 44 44 44 44 44 45 45 47 49 51 50 49 49 48 47 47 48 48 49 49 49 50 50 50 50 49 50 50 50 51 51 52 53 54 54 54 53 53 52 52 52 53 53 54 54 55 55 55 56 56 58 60 61 62 64 64 65 65 65 65 65 65 65 65 65 64
49 49 48 48 48 49 49 49 49 49 49 49 49 48 47 47 47 47 49 50 51 50 50 49 48 48 49 48 48 48 49 48 48 47 46 45 45 45 46 46 45 44 43 42 43 45 47 48 49 49 48 47 47 47 48 48 49 50 50 50 50 49 49 50 50 51 50 50 51 52 52 53 53 53 53 53 52 53 53 53 53 54 54 54 54 54 55 56 56 58 60 62 63 64 65 65 65 65 65 65 65 64 64
49 48 48 47 48 48 49 49 49 49 49 50 49 49 48 47 47 47 47 48 49 50 49 50 50 49 48 48 49 49 49 49 48 48 47 47 46 46 47 45 44 42 41 40 40 41 42 43 44 46 48 47 47 47 47 47 48 49 50 49 49 49 49 49 50 51 50 50 50 50 51 52 53 53 53 53 53 53 53 53 53 53 53 53 53 53 54 54 54 55 56 58 61 63 64 64 64 65 64 64 64 64 64
48 48 47 47 47 47 48 48 49 49 50 50 50 49 48 48 47 47 47 47 48 48 48 50 51 50 47 47 47 48 48 48 48 48 48 47 47 45 44 43 43 42 42 41 40 39 39 40 40 41 44 47 47 47 47 47 47 48 49 49 49 49 49 50 50 50 50 50 50 50 50 51 52 52 53 53 53 53 53 53 52 52 52 52 52 52 53 53 53 54 55 56 56 58 61 63 64 64 64 64 64 64 64
48 48 47 47 47 47 47 47 48 48 49 50 50 50 49 48 48 47 47 47 48 48 49 49 49 49 47 47 47 47 48 48 48 49 48 48 47 46 44 43 43 43 42 41 40 38 38 39 40 41 42 44 45 47 47 48 48 49 50 50 49 49 49 50 50 50 50 50 50 51 51 51 52 52 52 52 52 52 52 51 51 51 51 51 52 52 52 52 53 54 55 55 55 56 57 61 63 63 63 64 64 64 64
47 47 47 46 46 46 47 47 47 47 48 49 50 49 49 49 48 49 49 48 48 49 49 49 49 49 49 48 47 47 47 48 49 50 49 49 48 48 47 45 43 42 40 39 38 38 39 40 41 41 42 43 43 43 44 45 46 47 49 48 48 47 48 48 48 48 49 49 50 50 50 51 51 51 51 51 51 50 51 50 50 51 51 52 52 52 52 53 53 53 54 54 55 55 56 60 61 63 63 64 64 64 64
47 47 47 46 46 46 46 46 46 46 47 47 48 48 48 49 49 49 49 49 49 49 50 49 49 49 50 49 48 48 47 47 48 49 50 50 50 49 49 47 45 43 42 41 40 40 41 42 42 41 41 43 43 43 43 44 44 45 46 45 45 46 46 46 46 47 47 47 47 48 48 49 49 49 49 50 49 50 50 51 52 52 52 52 52 52 53 53 53 53 53 54 55 56 55 58 61 62 63 64 64 64 64
47 46 47 46 46 45 45 45 45 45 46 46 47 47 47 47 47 47 47 47 48 49 50 50 50 49 50 50 50 49 48 47 47 48 50 51 51 51 50 48 48 47 46 45 44 43 43 43 42 41 40 42 43 44 45 44 44 44 44 45 45 45 45 45 46 46 46 46 46 46 47 47 47 48 49 49 50 50 51 52 52 53 53 53 53 53 53 53 53 53 54 54 54 55 56 60 61 62 63 64 64 64 64
46 46 45 45 45 44 44 44 44 44 44 45 45 45 46 45 46 46 46 47 47 48 49 50 50 50 50 50 50 49 48 48 48 48 49 50 50 51 51 50 49 48 48 47 47 46 45 43 42 42 41 40 41 43 45 44 44 44 44 44 45 45 45 45 46 47 47 47 47 47 47 48 49 49 49 50 50 51 51 52 52 52 53 53 53 54 54 53 54 54 54 54 55 56 58 60 61 62 63 63 63 63 63
45 45 44 44 44 44 44 44 43 43 43 43 43 43 43 43 44 44 45 45 46 47 48 49 50 50 51 51 50 49 48 48 49 49 49 48 48 49 50 49 49 48 47 47 47 47 46 45 44 43 43 42 41 41 42 43 44 44 44 44 44 45 45 45 46 47 47 48 48 49 49 49 50 50 50 50 50 50 51 51 52 52 53 53 53 54 54 54 55 55 56 56 56 57 59 60 61 61 62 62 63 63 63
44 44 43 44 43 43 43 43 43 43 42 43 43 43 43 43 43 43 44 45 46 47 48 49 50 50 51 51 51 50 49 49 49 49 50 48 48 48 49 49 48 48 48 48 47 47 47 46 46 46 45 44 43 41 41 41 43 43 43 43 43 43 44 44 45 45 46 47 47 47 47 47 47 47 47 47 48 48 49 50 51 52 52 52 52 53 53 53 54 55 56 56 56 56 57 59 60 61 62 62 62 62 63